When you browse on this site, cookies collect data to enhance your experience and personalize the content and advertising you see.
Visit our Privacy Policy to learn more. By continuing to use the site, you agree to this use of cookies and data.
  • In Latvia
  • List of Countries
  • For 7 days
  • Water Temperature
  • Satellite Maps
  • Weather Map
  • Weather Widgets
  • user-avatar
    Login

    Hourly Weather Canillo

    Today, 23 May, Thursday

    Time Temperature Precipitation Wind Pressure Humidity
    00:00 +5°C° 0 mm 1 mps 617 mmHg 83%
    01:00 +5°C° 0 mm 1 mps 617 mmHg 81%
    02:00 +5°C° 0 mm 1 mps 617 mmHg 80%
    03:00 +5°C° 0 mm 1 mps 617 mmHg 78%
    04:00 +6°C° 0 mm 1 mps 617 mmHg 76%
    05:00 +7°C° 0 mm 1 mps 618 mmHg 73%
    06:00 +8°C° 0 mm 1 mps 618 mmHg 71%
    07:00 +11°C° 0 mm 1 mps 619 mmHg 61%
    08:00 +13°C° 0 mm 1 mps 621 mmHg 51%
    09:00 +16°C° 0 mm 1 mps 622 mmHg 41%
    10:00 +18°C° 0 mm 1 mps 622 mmHg 39%
    11:00 +19°C° 0 mm 1 mps 622 mmHg 36%
    12:00 +20°C° 0 mm 1 mps 622 mmHg 34%
    13:00 +18°C° 0.1 mm 1 mps 621 mmHg 43%
    14:00 +15°C° 0.1 mm 1 mps 620 mmHg 53%
    15:00 +13°C° 0.1 mm 1 mps 619 mmHg 62%
    16:00 +12°C° 0.8 mm 1 mps 619 mmHg 71%
    17:00 +11°C° 0.8 mm 1 mps 618 mmHg 80%
    18:00 +10°C° 0.8 mm 1 mps 618 mmHg 89%
    19:00 +10°C° 0.8 mm 1 mps 618 mmHg 90%
    20:00 +9°C° 0.8 mm 1 mps 618 mmHg 91%
    21:00 +9°C° 0.8 mm 1 mps 618 mmHg 92%
    22:00 +8°C° 1.8 mm 1 mps 618 mmHg 94%
    23:00 +7°C° 1.8 mm 0 mps 618 mmHg 95%

    Tomorrow, 24 May, Friday

    Time Temperature Precipitation Wind Pressure Humidity
    00:00 +7°C° 1.8 mm 0 mps 617 mmHg 97%
    01:00 +7°C° 3.4 mm 0 mps 617 mmHg 97%
    02:00 +6°C° 3.4 mm 0 mps 617 mmHg 96%
    03:00 +7°C° 3.4 mm 1 mps 617 mmHg 96%
    04:00 +7°C° 2.6 mm 1 mps 616 mmHg 96%
    05:00 +7°C° 2.6 mm 1 mps 616 mmHg 96%
    06:00 +7°C° 2.6 mm 1 mps 616 mmHg 96%
    07:00 +7°C° 1.8 mm 1 mps 616 mmHg 96%
    08:00 +7°C° 1.8 mm 1 mps 617 mmHg 96%
    09:00 +6°C° 1.8 mm 1 mps 617 mmHg 96%
    10:00 +6°C° 1.1 mm 2 mps 617 mmHg 95%
    11:00 +6°C° 1.1 mm 2 mps 616 mmHg 94%
    12:00 +6°C° 1.1 mm 2 mps 616 mmHg 93%
    13:00 +6°C° 0.7 mm 2 mps 616 mmHg 93%
    14:00 +6°C° 0.7 mm 2 mps 616 mmHg 92%
    15:00 +6°C° 0.7 mm 2 mps 616 mmHg 91%
    16:00 +6°C° 0.7 mm 2 mps 616 mmHg 92%
    17:00 +6°C° 0.7 mm 2 mps 615 mmHg 93%
    18:00 +5°C° 0.7 mm 2 mps 615 mmHg 94%
    19:00 +5°C° 1 mm 2 mps 615 mmHg 94%
    20:00 +5°C° 1 mm 2 mps 615 mmHg 95%
    21:00 +5°C° 1 mm 2 mps 616 mmHg 96%
    22:00 +5°C° 1.6 mm 2 mps 615 mmHg 96%
    23:00 +5°C° 1.6 mm 2 mps 615 mmHg 97%

    Day after tomorrow, 25 May, Saturday

    Time Temperature Precipitation Wind Pressure Humidity
    00:00 +4°C° 1.6 mm 2 mps 615 mmHg 97%
    01:00 +4°C° 2 mm 2 mps 615 mmHg 97%
    02:00 +4°C° 2 mm 2 mps 615 mmHg 97%
    03:00 +4°C° 2 mm 2 mps 615 mmHg 97%
    04:00 +4°C° 1.4 mm 2 mps 615 mmHg 97%
    05:00 +5°C° 1.4 mm 2 mps 615 mmHg 97%
    06:00 +4°C° 1.4 mm 3 mps 615 mmHg 97%
    07:00 +4°C° 1.1 mm 3 mps 616 mmHg 96%
    08:00 +4°C° 1.1 mm 3 mps 616 mmHg 96%
    09:00 +4°C° 1.1 mm 3 mps 616 mmHg 95%
    10:00 +5°C° 0.7 mm 3 mps 617 mmHg 93%
    11:00 +5°C° 0.7 mm 3 mps 617 mmHg 92%
    12:00 +7°C° 0.7 mm 2 mps 617 mmHg 90%
    13:00 +7°C° 0.4 mm 3 mps 617 mmHg 89%
    14:00 +7°C° 0.4 mm 3 mps 617 mmHg 88%
    15:00 +8°C° 0.4 mm 3 mps 617 mmHg 87%
    16:00 +7°C° 0.2 mm 3 mps 617 mmHg 88%
    17:00 +7°C° 0.2 mm 3 mps 617 mmHg 89%
    18:00 +7°C° 0.2 mm 3 mps 617 mmHg 91%
    19:00 +5°C° 0.2 mm 3 mps 617 mmHg 92%
    20:00 +5°C° 0.2 mm 3 mps 618 mmHg 93%
    21:00 +4°C° 0.2 mm 3 mps 618 mmHg 94%
    22:00 +4°C° 0.1 mm 3 mps 618 mmHg 95%
    23:00 +4°C° 0.1 mm 3 mps 618 mmHg 95%

    26 May, Sunday

    Time Temperature Precipitation Wind Pressure Humidity
    00:00 +4°C° 0.1 mm 3 mps 618 mmHg 95%
    01:00 +4°C° 0.1 mm 3 mps 617 mmHg 94%
    02:00 +4°C° 0.1 mm 3 mps 617 mmHg 93%
    03:00 +4°C° 0.1 mm 3 mps 617 mmHg 93%
    04:00 +4°C° 0 mm 3 mps 617 mmHg 92%
    05:00 +5°C° 0 mm 3 mps 617 mmHg 92%
    06:00 +5°C° 0 mm 3 mps 618 mmHg 92%
    07:00 +7°C° 0 mm 3 mps 618 mmHg 87%
    08:00 +7°C° 0 mm 3 mps 618 mmHg 83%
    09:00 +7°C° 0 mm 4 mps 619 mmHg 79%
    10:00 +9°C° 0 mm 3 mps 619 mmHg 74%
    11:00 +10°C° 0 mm 3 mps 619 mmHg 69%
    12:00 +11°C° 0 mm 3 mps 620 mmHg 64%
    13:00 +12°C° 0 mm 3 mps 620 mmHg 62%
    14:00 +12°C° 0 mm 3 mps 619 mmHg 59%
    15:00 +13°C° 0 mm 3 mps 619 mmHg 57%
    16:00 +12°C° 0 mm 3 mps 619 mmHg 63%
    17:00 +11°C° 0 mm 3 mps 619 mmHg 68%
    18:00 +10°C° 0 mm 3 mps 618 mmHg 74%
    19:00 +8°C° 0 mm 3 mps 618 mmHg 80%
    20:00 +7°C° 0 mm 2 mps 618 mmHg 86%
    21:00 +6°C° 0 mm 2 mps 617 mmHg 91%
    22:00 +6°C° 0 mm 2 mps 617 mmHg 91%
    23:00 +6°C° 0 mm 2 mps 617 mmHg 91%

    27 May, Monday

    Time Temperature Precipitation Wind Pressure Humidity
    00:00 +6°C° 0 mm 2 mps 617 mmHg 91%
    01:00 +5°C° 0 mm 2 mps 617 mmHg 92%
    02:00 +5°C° 0 mm 2 mps 616 mmHg 92%
    03:00 +4°C° 0 mm 2 mps 616 mmHg 93%
    04:00 +5°C° 0 mm 2 mps 616 mmHg 91%
    05:00 +5°C° 0 mm 2 mps 616 mmHg 88%
    06:00 +6°C° 0 mm 2 mps 616 mmHg 85%
    07:00 +8°C° 0 mm 2 mps 617 mmHg 75%
    08:00 +10°C° 0 mm 2 mps 618 mmHg 65%
    09:00 +13°C° 0 mm 2 mps 619 mmHg 55%
    10:00 +14°C° 0 mm 2 mps 619 mmHg 53%
    11:00 +15°C° 0 mm 2 mps 619 mmHg 50%
    12:00 +16°C° 0 mm 2 mps 619 mmHg 48%
    13:00 +16°C° 0 mm 2 mps 619 mmHg 51%
    14:00 +15°C° 0 mm 2 mps 619 mmHg 54%
    15:00 +15°C° 0 mm 2 mps 618 mmHg 57%
    16:00 +13°C° 0.1 mm 2 mps 617 mmHg 67%
    17:00 +12°C° 0.1 mm 2 mps 617 mmHg 78%
    18:00 +9°C° 0.1 mm 2 mps 616 mmHg 88%
    19:00 +8°C° 0.1 mm 2 mps 616 mmHg 90%
    20:00 +7°C° 0.1 mm 2 mps 616 mmHg 91%
    21:00 +7°C° 0.1 mm 2 mps 616 mmHg 93%
    22:00 +6°C° 0.1 mm 2 mps 616 mmHg 93%
    23:00 +6°C° 0.1 mm 2 mps 616 mmHg 94%

    28 May, Tuesday

    Time Temperature Precipitation Wind Pressure Humidity
    00:00 +6°C° 0.1 mm 2 mps 616 mmHg 94%
    01:00 +5°C° 0 mm 2 mps 615 mmHg 93%
    02:00 +5°C° 0 mm 2 mps 615 mmHg 93%
    03:00 +5°C° 0 mm 2 mps 615 mmHg 92%
    04:00 +4°C° 0 mm 2 mps 615 mmHg 89%
    05:00 +4°C° 0 mm 2 mps 615 mmHg 86%
    06:00 +3°C° 0 mm 2 mps 615 mmHg 83%
    07:00 +5°C° 0 mm 2 mps 616 mmHg 72%
    08:00 +7°C° 0 mm 2 mps 617 mmHg 61%
    09:00 +9°C° 0 mm 2 mps 618 mmHg 50%
    10:00 +12°C° 0 mm 2 mps 618 mmHg 47%
    11:00 +13°C° 0 mm 2 mps 618 mmHg 45%
    12:00 +14°C° 0 mm 2 mps 619 mmHg 42%
    13:00 +12°C° 0.3 mm 2 mps 618 mmHg 54%
    14:00 +10°C° 0.3 mm 3 mps 617 mmHg 66%
    15:00 +8°C° 0.3 mm 3 mps 616 mmHg 78%
    16:00 +7°C° 0.3 mm 3 mps 616 mmHg 81%
    17:00 +7°C° 0.3 mm 2 mps 616 mmHg 83%
    18:00 +6°C° 0.3 mm 2 mps 616 mmHg 86%
    19:00 +5°C° 0.1 mm 2 mps 616 mmHg 88%
    20:00 +5°C° 0.1 mm 2 mps 616 mmHg 90%
    21:00 +4°C° 0.1 mm 2 mps 616 mmHg 92%
    22:00 +3°C° 0 mm 2 mps 616 mmHg 92%
    23:00 +2°C° 0 mm 2 mps 616 mmHg 92%
    Show more